Weather History for Columbus, OH

Change the Weather History Date:

Monday, February 4, 2013

  Actual Average Record
Temperature  
Mean Temperature 23 °F 31 °F  
Max Temperature 31 °F 38 °F 66 °F (1890)
Min Temperature 15 °F 23 °F -9 °F (1985)
Degree Days  
Heating Degree Days 42 34  
Month to date heating degree days 180 139  
Since 1 July heating degree days 3096 3231  
Cooling Degree Days 0 0  
Month to date cooling degree days 0 0  
Year to date cooling degree days 0 0  
Moisture  
Dew Point 20 °F    
Average Humidity 75    
Maximum Humidity 92    
Minimum Humidity 58    
Precipitation  
Precipitation 0.13 in 0.08 in 0.90 in (1997)
Month to date precipitation 0.27 0.33  
Year to date precipitation 2.52 3.06  
Snow  
Snow 1.60 in 0.20 in 6.70 in (1948)
Month to date snowfall 4.0 1.0  
Since 1 July snowfall 26.2 16.3  
Snow Depth 2.00 in    
Sea Level Pressure  
Sea Level Pressure 29.95 in    
Wind  
Wind Speed 6 mph (South)    
Max Wind Speed 16 mph    
Max Gust Speed 20 mph    
Visibility 5 miles    
Events Fog , Snow    
T = Trace of Precipitation, MM = Missing Value Source: NWS Daily Summary

Daily Weather History Graph

Daily Weather History Graph

Search for Another Location

Airport:

Trip Planner

Search our weather history database for the weather conditions in past years. The results will help you decide how hot, cold, wet, or windy it might be!

Date:

Astronomy

Feb. 04, 2013 Rise Set
Actual Time 7:36 AM EST 5:54 PM EST
Civil Twilight 7:08 AM EST 6:23 PM EST
Nautical Twilight 6:36 AM EST 6:55 PM EST
Astronomical Twilight 6:04 AM EST 7:27 PM EST
Moon 2:11 AM EST (2/4) 12:17 PM EST (2/4)
Length of Visible Light 11h 14m
Length of Day
10h 17m
Last Quarter, 37% of the Moon is Illuminated
Feb 4
Last Quarter
Feb 10
New
Feb 17
First Quarter
Feb 25
Full
Mar 4
Last Quarter

Hourly Weather History & Observations

Time (EST) Temp. Windchill Dew Point Humidity Pressure Visibility Wind Dir Wind Speed Gust Speed Precip Events Conditions
12:51 AM 17.1 °F 8.7 °F 12.0 °F 81% 30.12 in 10.0 mi WSW 5.8 mph - N/A   Partly Cloudy
1:51 AM 19.0 °F 11.1 °F 14.0 °F 81% 30.12 in 10.0 mi SSW 5.8 mph - N/A   Overcast
2:10 AM 19.4 °F 9.5 °F 12.2 °F 74% 30.08 in 10.0 mi WSW 8.1 mph - N/A   Overcast
2:27 AM 19.4 °F 10.4 °F 12.2 °F 74% 30.08 in 10.0 mi SW 6.9 mph - N/A   Scattered Clouds
2:51 AM 19.0 °F 12.3 °F 12.9 °F 77% 30.12 in 10.0 mi SW 4.6 mph - N/A   Mostly Cloudy
3:51 AM 19.0 °F 11.1 °F 12.9 °F 77% 30.11 in 8.0 mi SW 5.8 mph - 0.00 in   Partly Cloudy
5:51 AM 15.8 °F 8.6 °F 12.2 °F 86% 30.06 in 7.0 mi South 4.6 mph - N/A   Partly Cloudy
6:51 AM 15.1 °F 7.7 °F 12.0 °F 88% 30.09 in 6.0 mi SSE 4.6 mph - N/A   Overcast
7:51 AM 17.1 °F 10.0 °F 14.0 °F 88% 30.07 in 4.0 mi South 4.6 mph - N/A   Overcast
8:51 AM 19.0 °F 10.0 °F 15.1 °F 85% 30.06 in 5.0 mi SSE 6.9 mph - 0.00 in   Overcast
9:51 AM 21.9 °F 13.4 °F 16.0 °F 78% 30.03 in 9.0 mi SSE 6.9 mph - N/A   Overcast
10:51 AM 25.0 °F 14.2 °F 15.1 °F 66% 30.01 in 10.0 mi South 11.5 mph - N/A   Overcast
11:51 AM 27.0 °F 16.1 °F 16.0 °F 63% 30.00 in 10.0 mi South 12.7 mph - N/A   Overcast
12:51 PM 28.0 °F 18.6 °F 16.0 °F 61% 29.96 in 10.0 mi SSE 10.4 mph - N/A   Overcast
1:33 PM 26.6 °F 16.8 °F 17.6 °F 69% 29.91 in 2.0 mi South 10.4 mph - 0.00 in Snow Light Snow
1:41 PM 26.6 °F 17.5 °F 19.4 °F 74% 29.90 in 1.0 mi South 9.2 mph - 0.00 in Snow Light Snow
1:51 PM 26.1 °F 16.8 °F 21.0 °F 81% 29.93 in 0.5 mi SSE 9.2 mph - 0.01 in Snow Snow
2:09 PM 26.6 °F 18.2 °F 21.2 °F 80% 29.88 in 0.5 mi SSE 8.1 mph - 0.01 in Fog , Snow Snow
2:32 PM 26.6 °F 18.2 °F 23.0 °F 86% 29.87 in 0.5 mi SSE 8.1 mph - 0.03 in Fog , Snow Snow
2:48 PM 26.6 °F 19.1 °F 23.0 °F 86% 29.86 in 0.5 mi SSE 6.9 mph - 0.04 in Fog , Snow Snow
2:51 PM 26.1 °F 19.4 °F 23.0 °F 88% 29.90 in 0.5 mi SE 5.8 mph - 0.04 in Fog , Snow Snow
3:51 PM 27.0 °F 20.5 °F 24.1 °F 89% 29.89 in 0.5 mi SE 5.8 mph - 0.04 in Fog , Snow Snow
4:17 PM 26.6 °F 20.0 °F 24.8 °F 93% 29.85 in 0.5 mi SE 5.8 mph - 0.01 in Snow Light Snow
4:46 PM 26.6 °F 21.2 °F 24.8 °F 93% 29.85 in 1.5 mi SSE 4.6 mph - 0.03 in Snow Light Snow
4:51 PM 27.0 °F 21.6 °F 25.0 °F 92% 29.88 in 1.5 mi SE 4.6 mph - 0.03 in Snow Light Snow
5:29 PM 28.4 °F 23.3 °F 26.6 °F 93% 29.85 in 2.0 mi SSE 4.6 mph - 0.01 in Snow Light Snow
5:37 PM 28.4 °F 21.2 °F 26.6 °F 93% 29.84 in 2.5 mi South 6.9 mph - 0.01 in Snow Light Snow
5:47 PM 28.4 °F 22.2 °F 26.6 °F 93% 29.84 in 5.0 mi South 5.8 mph - 0.01 in Snow Light Snow
5:51 PM 28.0 °F 21.7 °F 26.1 °F 92% 29.88 in 4.0 mi South 5.8 mph - 0.01 in Snow Light Snow
6:51 PM 28.9 °F 23.9 °F 26.1 °F 89% 29.88 in 6.0 mi South 4.6 mph - 0.00 in Snow Light Snow
7:21 PM 28.4 °F 23.3 °F 26.6 °F 93% 29.85 in 6.0 mi SSE 4.6 mph - 0.00 in Snow Light Snow
7:51 PM 28.9 °F 22.8 °F 27.0 °F 92% 29.88 in 6.0 mi South 5.8 mph - 0.00 in Snow Light Snow
8:17 PM 30.2 °F 25.4 °F 26.6 °F 86% 29.84 in 6.0 mi South 4.6 mph - 0.00 in   Overcast
8:51 PM 30.0 °F 25.2 °F 28.0 °F 92% 29.87 in 6.0 mi South 4.6 mph - 0.00 in   Overcast
9:51 PM 30.2 °F - 28.4 °F 93% 29.86 in 5.0 mi Calm Calm - N/A   Overcast
10:51 PM 30.0 °F - 28.9 °F 96% 29.89 in 4.0 mi Calm Calm - N/A   Overcast
11:51 PM 30.0 °F - 28.9 °F 96% 29.88 in 4.0 mi Calm Calm - N/A   Overcast